owner,sensor,date,latitude,longitude,vertical_datum,sea_water_practical_salinity,qcFlag 
ENP,ioos.station.NOAA.NDBC:LMDF1:1,2017-12-01T00:00:00Z,25.1760,-80.6330,1.5,15.37,1111122 
ENP,ioos.station.NOAA.NDBC:LMDF1:1,2017-12-01T01:00:00Z,25.1760,-80.6330,1.5,15.02,1111122 
ENP,ioos.station.NOAA.NDBC:LMDF1:1,2017-12-01T02:00:00Z,25.1760,-80.6330,1.5,15.17,1111122 
ENP,ioos.station.NOAA.NDBC:LMDF1:1,2017-12-01T04:00:00Z,25.1760,-80.6330,1.5,15.49,1111122 
ENP,ioos.station.NOAA.NDBC:LMDF1:1,2017-12-01T05:00:00Z,25.1760,-80.6330,1.5,15.5,1111122 
ENP,ioos.station.NOAA.NDBC:LMDF1:1,2017-12-01T07:00:00Z,25.1760,-80.6330,1.5,15.38,1111122 
ENP,ioos.station.NOAA.NDBC:LMDF1:1,2017-12-01T08:00:00Z,25.1760,-80.6330,1.5,15.26,1111122 
ENP,ioos.station.NOAA.NDBC:LMDF1:1,2017-12-01T09:00:00Z,25.1760,-80.6330,1.5,15.03,1111122 
ENP,ioos.station.NOAA.NDBC:LMDF1:1,2017-12-01T10:00:00Z,25.1760,-80.6330,1.5,15.38,1111122 
ENP,ioos.station.NOAA.NDBC:LMDF1:1,2017-12-01T12:00:00Z,25.1760,-80.6330,1.5,15.49,1111122 
ENP,ioos.station.NOAA.NDBC:LMDF1:1,2017-12-01T13:00:00Z,25.1760,-80.6330,1.5,15.48,1111122 
ENP,ioos.station.NOAA.NDBC:LMDF1:1,2017-12-01T14:00:00Z,25.1760,-80.6330,1.5,15.52,1111122 
ENP,ioos.station.NOAA.NDBC:LMDF1:1,2017-12-01T15:00:00Z,25.1760,-80.6330,1.5,15.54,1111122 
ENP,ioos.station.NOAA.NDBC:LMDF1:1,2017-12-01T16:00:00Z,25.1760,-80.6330,1.5,15.56,1111122 
ENP,ioos.station.NOAA.NDBC:LMDF1:1,2017-12-01T17:00:00Z,25.1760,-80.6330,1.5,15.0,1111122 
ENP,ioos.station.NOAA.NDBC:LMDF1:1,2017-12-01T18:00:00Z,25.1760,-80.6330,1.5,15.3,1111122 
ENP,ioos.station.NOAA.NDBC:LMDF1:1,2017-12-01T19:00:00Z,25.1760,-80.6330,1.5,15.21,1111122 
ENP,ioos.station.NOAA.NDBC:LMDF1:1,2017-12-01T20:00:00Z,25.1760,-80.6330,1.5,14.33,1111122 
ENP,ioos.station.NOAA.NDBC:LMDF1:1,2017-12-02T08:00:00Z,25.1760,-80.6330,1.5,15.78,1111122 
ENP,ioos.station.NOAA.NDBC:LMDF1:1,2017-12-02T09:00:00Z,25.1760,-80.6330,1.5,14.05,1111122 
ENP,ioos.station.NOAA.NDBC:LMDF1:1,2017-12-02T10:00:00Z,25.1760,-80.6330,1.5,15.65,1111122 
ENP,ioos.station.NOAA.NDBC:LMDF1:1,2017-12-02T12:00:00Z,25.1760,-80.6330,1.5,15.75,1111122 
ENP,ioos.station.NOAA.NDBC:LMDF1:1,2017-12-02T13:00:00Z,25.1760,-80.6330,1.5,15.85,1111122 
ENP,ioos.station.NOAA.NDBC:LMDF1:1,2017-12-02T14:00:00Z,25.1760,-80.6330,1.5,15.78,1111122 
ENP,ioos.station.NOAA.NDBC:LMDF1:1,2017-12-02T15:00:00Z,25.1760,-80.6330,1.5,15.74,1111122 
ENP,ioos.station.NOAA.NDBC:LMDF1:1,2017-12-02T16:00:00Z,25.1760,-80.6330,1.5,15.56,1111122 
ENP,ioos.station.NOAA.NDBC:LMDF1:1,2017-12-02T17:00:00Z,25.1760,-80.6330,1.5,15.75,1111122 
ENP,ioos.station.NOAA.NDBC:LMDF1:1,2017-12-02T18:00:00Z,25.1760,-80.6330,1.5,15.68,1111122 
ENP,ioos.station.NOAA.NDBC:LMDF1:1,2017-12-02T19:00:00Z,25.1760,-80.6330,1.5,15.48,1111122 
ENP,ioos.station.NOAA.NDBC:LMDF1:1,2017-12-02T20:00:00Z,25.1760,-80.6330,1.5,15.47,1111122 
ENP,ioos.station.NOAA.NDBC:LMDF1:1,2017-12-02T21:00:00Z,25.1760,-80.6330,1.5,15.81,1111122 
ENP,ioos.station.NOAA.NDBC:LMDF1:1,2017-12-02T22:00:00Z,25.1760,-80.6330,1.5,14.19,1111122 
ENP,ioos.station.NOAA.NDBC:LMDF1:1,2017-12-03T00:00:00Z,25.1760,-80.6330,1.5,15.66,1111122 
ENP,ioos.station.NOAA.NDBC:LMDF1:1,2017-12-03T01:00:00Z,25.1760,-80.6330,1.5,15.66,1111122 
ENP,ioos.station.NOAA.NDBC:LMDF1:1,2017-12-03T02:00:00Z,25.1760,-80.6330,1.5,15.61,1111122 
ENP,ioos.station.NOAA.NDBC:LMDF1:1,2017-12-03T04:00:00Z,25.1760,-80.6330,1.5,15.96,1111122 
ENP,ioos.station.NOAA.NDBC:LMDF1:1,2017-12-03T05:00:00Z,25.1760,-80.6330,1.5,16.14,1111122 
ENP,ioos.station.NOAA.NDBC:LMDF1:1,2017-12-03T07:00:00Z,25.1760,-80.6330,1.5,15.64,1111122 
ENP,ioos.station.NOAA.NDBC:LMDF1:1,2017-12-03T08:00:00Z,25.1760,-80.6330,1.5,16.02,1111122 
ENP,ioos.station.NOAA.NDBC:LMDF1:1,2017-12-03T09:00:00Z,25.1760,-80.6330,1.5,16.18,1111122 
ENP,ioos.station.NOAA.NDBC:LMDF1:1,2017-12-03T10:00:00Z,25.1760,-80.6330,1.5,16.06,1111122 
ENP,ioos.station.NOAA.NDBC:LMDF1:1,2017-12-03T13:00:00Z,25.1760,-80.6330,1.5,16.38,1111122 
ENP,ioos.station.NOAA.NDBC:LMDF1:1,2017-12-03T14:00:00Z,25.1760,-80.6330,1.5,16.39,1111122 
ENP,ioos.station.NOAA.NDBC:LMDF1:1,2017-12-03T15:00:00Z,25.1760,-80.6330,1.5,16.35,1111122 
ENP,ioos.station.NOAA.NDBC:LMDF1:1,2017-12-03T16:00:00Z,25.1760,-80.6330,1.5,16.32,1111122 
ENP,ioos.station.NOAA.NDBC:LMDF1:1,2017-12-03T17:00:00Z,25.1760,-80.6330,1.5,15.88,1111122 
ENP,ioos.station.NOAA.NDBC:LMDF1:1,2017-12-03T18:00:00Z,25.1760,-80.6330,1.5,15.92,1111122 
ENP,ioos.station.NOAA.NDBC:LMDF1:1,2017-12-03T19:00:00Z,25.1760,-80.6330,1.5,15.66,1111122 
ENP,ioos.station.NOAA.NDBC:LMDF1:1,2017-12-03T20:00:00Z,25.1760,-80.6330,1.5,15.69,1111122 
ENP,ioos.station.NOAA.NDBC:LMDF1:1,2017-12-03T21:00:00Z,25.1760,-80.6330,1.5,14.39,1111122 
ENP,ioos.station.NOAA.NDBC:LMDF1:1,2017-12-03T22:00:00Z,25.1760,-80.6330,1.5,12.98,1111122 
ENP,ioos.station.NOAA.NDBC:LMDF1:1,2017-12-03T23:00:00Z,25.1760,-80.6330,1.5,15.68,1111122 
ENP,ioos.station.NOAA.NDBC:LMDF1:1,2017-12-04T02:00:00Z,25.1760,-80.6330,1.5,15.98,1111122 
ENP,ioos.station.NOAA.NDBC:LMDF1:1,2017-12-04T04:00:00Z,25.1760,-80.6330,1.5,16.06,1111122 
ENP,ioos.station.NOAA.NDBC:LMDF1:1,2017-12-04T05:00:00Z,25.1760,-80.6330,1.5,16.0,1111122 
ENP,ioos.station.NOAA.NDBC:LMDF1:1,2017-12-04T07:00:00Z,25.1760,-80.6330,1.5,16.18,1111122 
ENP,ioos.station.NOAA.NDBC:LMDF1:1,2017-12-04T08:00:00Z,25.1760,-80.6330,1.5,16.1,1111122 
ENP,ioos.station.NOAA.NDBC:LMDF1:1,2017-12-04T09:00:00Z,25.1760,-80.6330,1.5,16.2,1111122 
ENP,ioos.station.NOAA.NDBC:LMDF1:1,2017-12-04T10:00:00Z,25.1760,-80.6330,1.5,15.98,1111122 
ENP,ioos.station.NOAA.NDBC:LMDF1:1,2017-12-04T12:00:00Z,25.1760,-80.6330,1.5,16.67,1111122 
ENP,ioos.station.NOAA.NDBC:LMDF1:1,2017-12-04T13:00:00Z,25.1760,-80.6330,1.5,17.09,1111122 
ENP,ioos.station.NOAA.NDBC:LMDF1:1,2017-12-04T14:00:00Z,25.1760,-80.6330,1.5,17.33,1111122 
ENP,ioos.station.NOAA.NDBC:LMDF1:1,2017-12-04T15:00:00Z,25.1760,-80.6330,1.5,17.06,1111122 
ENP,ioos.station.NOAA.NDBC:LMDF1:1,2017-12-04T16:00:00Z,25.1760,-80.6330,1.5,16.6,1111122 
ENP,ioos.station.NOAA.NDBC:LMDF1:1,2017-12-04T17:00:00Z,25.1760,-80.6330,1.5,16.49,1111122 
ENP,ioos.station.NOAA.NDBC:LMDF1:1,2017-12-04T18:00:00Z,25.1760,-80.6330,1.5,16.18,1111122 
ENP,ioos.station.NOAA.NDBC:LMDF1:1,2017-12-04T19:00:00Z,25.1760,-80.6330,1.5,15.12,1111122 
ENP,ioos.station.NOAA.NDBC:LMDF1:1,2017-12-04T20:00:00Z,25.1760,-80.6330,1.5,14.43,1111122 
ENP,ioos.station.NOAA.NDBC:LMDF1:1,2017-12-04T21:00:00Z,25.1760,-80.6330,1.5,15.32,1111122 
ENP,ioos.station.NOAA.NDBC:LMDF1:1,2017-12-04T22:00:00Z,25.1760,-80.6330,1.5,14.5,1111122 
ENP,ioos.station.NOAA.NDBC:LMDF1:1,2017-12-04T23:00:00Z,25.1760,-80.6330,1.5,15.38,1111122 
ENP,ioos.station.NOAA.NDBC:LMDF1:1,2017-12-05T00:00:00Z,25.1760,-80.6330,1.5,15.36,1111122 
ENP,ioos.station.NOAA.NDBC:LMDF1:1,2017-12-05T13:00:00Z,25.1760,-80.6330,1.5,17.78,1111122 
ENP,ioos.station.NOAA.NDBC:LMDF1:1,2017-12-05T14:00:00Z,25.1760,-80.6330,1.5,17.18,1111122 
ENP,ioos.station.NOAA.NDBC:LMDF1:1,2017-12-05T15:00:00Z,25.1760,-80.6330,1.5,15.72,1111122 
ENP,ioos.station.NOAA.NDBC:LMDF1:1,2017-12-05T16:00:00Z,25.1760,-80.6330,1.5,15.96,1111122 
ENP,ioos.station.NOAA.NDBC:LMDF1:1,2017-12-05T17:00:00Z,25.1760,-80.6330,1.5,15.86,1111122 
ENP,ioos.station.NOAA.NDBC:LMDF1:1,2017-12-05T18:00:00Z,25.1760,-80.6330,1.5,15.78,1111122 
ENP,ioos.station.NOAA.NDBC:LMDF1:1,2017-12-05T19:00:00Z,25.1760,-80.6330,1.5,15.92,1111122 
ENP,ioos.station.NOAA.NDBC:LMDF1:1,2017-12-05T20:00:00Z,25.1760,-80.6330,1.5,16.06,1111122 
ENP,ioos.station.NOAA.NDBC:LMDF1:1,2017-12-05T21:00:00Z,25.1760,-80.6330,1.5,13.87,1111122 
ENP,ioos.station.NOAA.NDBC:LMDF1:1,2017-12-05T22:00:00Z,25.1760,-80.6330,1.5,14.28,1111122 
ENP,ioos.station.NOAA.NDBC:LMDF1:1,2017-12-05T23:00:00Z,25.1760,-80.6330,1.5,13.59,1111122 
ENP,ioos.station.NOAA.NDBC:LMDF1:1,2017-12-06T00:00:00Z,25.1760,-80.6330,1.5,16.94,1111122 
ENP,ioos.station.NOAA.NDBC:LMDF1:1,2017-12-06T01:00:00Z,25.1760,-80.6330,1.5,17.3,1111122 
ENP,ioos.station.NOAA.NDBC:LMDF1:1,2017-12-06T02:00:00Z,25.1760,-80.6330,1.5,17.27,1111122 
ENP,ioos.station.NOAA.NDBC:LMDF1:1,2017-12-06T04:00:00Z,25.1760,-80.6330,1.5,16.9,1111122 
ENP,ioos.station.NOAA.NDBC:LMDF1:1,2017-12-06T05:00:00Z,25.1760,-80.6330,1.5,16.24,1111122 
ENP,ioos.station.NOAA.NDBC:LMDF1:1,2017-12-06T07:00:00Z,25.1760,-80.6330,1.5,15.6,1111122 
ENP,ioos.station.NOAA.NDBC:LMDF1:1,2017-12-06T08:00:00Z,25.1760,-80.6330,1.5,16.01,1111122 
ENP,ioos.station.NOAA.NDBC:LMDF1:1,2017-12-06T09:00:00Z,25.1760,-80.6330,1.5,15.58,1111122 
ENP,ioos.station.NOAA.NDBC:LMDF1:1,2017-12-06T10:00:00Z,25.1760,-80.6330,1.5,15.51,1111122 
ENP,ioos.station.NOAA.NDBC:LMDF1:1,2017-12-06T13:00:00Z,25.1760,-80.6330,1.5,17.02,1111122 
ENP,ioos.station.NOAA.NDBC:LMDF1:1,2017-12-06T14:00:00Z,25.1760,-80.6330,1.5,17.48,1111122 
ENP,ioos.station.NOAA.NDBC:LMDF1:1,2017-12-06T15:00:00Z,25.1760,-80.6330,1.5,17.37,1111122 
ENP,ioos.station.NOAA.NDBC:LMDF1:1,2017-12-06T16:00:00Z,25.1760,-80.6330,1.5,16.41,1111122 
ENP,ioos.station.NOAA.NDBC:LMDF1:1,2017-12-06T17:00:00Z,25.1760,-80.6330,1.5,16.13,1111122 
ENP,ioos.station.NOAA.NDBC:LMDF1:1,2017-12-06T18:00:00Z,25.1760,-80.6330,1.5,15.71,1111122 
ENP,ioos.station.NOAA.NDBC:LMDF1:1,2017-12-06T19:00:00Z,25.1760,-80.6330,1.5,16.49,1111122 
ENP,ioos.station.NOAA.NDBC:LMDF1:1,2017-12-06T20:00:00Z,25.1760,-80.6330,1.5,16.18,1111122 
ENP,ioos.station.NOAA.NDBC:LMDF1:1,2017-12-06T21:00:00Z,25.1760,-80.6330,1.5,16.08,1111122 
ENP,ioos.station.NOAA.NDBC:LMDF1:1,2017-12-06T22:00:00Z,25.1760,-80.6330,1.5,16.09,1111122 
ENP,ioos.station.NOAA.NDBC:LMDF1:1,2017-12-06T23:00:00Z,25.1760,-80.6330,1.5,13.87,1111122 
ENP,ioos.station.NOAA.NDBC:LMDF1:1,2017-12-07T00:00:00Z,25.1760,-80.6330,1.5,16.04,1111122 
ENP,ioos.station.NOAA.NDBC:LMDF1:1,2017-12-07T01:00:00Z,25.1760,-80.6330,1.5,16.14,1111122 
ENP,ioos.station.NOAA.NDBC:LMDF1:1,2017-12-07T02:00:00Z,25.1760,-80.6330,1.5,16.15,1111122 
ENP,ioos.station.NOAA.NDBC:LMDF1:1,2017-12-07T04:00:00Z,25.1760,-80.6330,1.5,16.19,1111122 
ENP,ioos.station.NOAA.NDBC:LMDF1:1,2017-12-07T05:00:00Z,25.1760,-80.6330,1.5,16.31,1111122 
ENP,ioos.station.NOAA.NDBC:LMDF1:1,2017-12-07T07:00:00Z,25.1760,-80.6330,1.5,16.12,1111122 
ENP,ioos.station.NOAA.NDBC:LMDF1:1,2017-12-07T08:00:00Z,25.1760,-80.6330,1.5,16.25,1111122 
ENP,ioos.station.NOAA.NDBC:LMDF1:1,2017-12-07T09:00:00Z,25.1760,-80.6330,1.5,17.04,1111122 
ENP,ioos.station.NOAA.NDBC:LMDF1:1,2017-12-07T10:00:00Z,25.1760,-80.6330,1.5,14.5,1111122 
ENP,ioos.station.NOAA.NDBC:LMDF1:1,2017-12-07T13:00:00Z,25.1760,-80.6330,1.5,17.25,1111122 
ENP,ioos.station.NOAA.NDBC:LMDF1:1,2017-12-07T14:00:00Z,25.1760,-80.6330,1.5,17.23,1111122 
ENP,ioos.station.NOAA.NDBC:LMDF1:1,2017-12-07T15:00:00Z,25.1760,-80.6330,1.5,17.29,1111122 
ENP,ioos.station.NOAA.NDBC:LMDF1:1,2017-12-07T16:00:00Z,25.1760,-80.6330,1.5,17.33,1111122 
ENP,ioos.station.NOAA.NDBC:LMDF1:1,2017-12-07T17:00:00Z,25.1760,-80.6330,1.5,15.98,1111122 
ENP,ioos.station.NOAA.NDBC:LMDF1:1,2017-12-07T18:00:00Z,25.1760,-80.6330,1.5,16.69,1111122 
ENP,ioos.station.NOAA.NDBC:LMDF1:1,2017-12-07T19:00:00Z,25.1760,-80.6330,1.5,16.68,1111122 
ENP,ioos.station.NOAA.NDBC:LMDF1:1,2017-12-07T20:00:00Z,25.1760,-80.6330,1.5,16.79,1111122 
ENP,ioos.station.NOAA.NDBC:LMDF1:1,2017-12-07T22:00:00Z,25.1760,-80.6330,1.5,16.4,1111122 
ENP,ioos.station.NOAA.NDBC:LMDF1:1,2017-12-07T23:00:00Z,25.1760,-80.6330,1.5,16.39,1111122 
ENP,ioos.station.NOAA.NDBC:LMDF1:1,2017-12-08T00:00:00Z,25.1760,-80.6330,1.5,15.28,1111122 
ENP,ioos.station.NOAA.NDBC:LMDF1:1,2017-12-08T01:00:00Z,25.1760,-80.6330,1.5,15.9,1111122 
ENP,ioos.station.NOAA.NDBC:LMDF1:1,2017-12-08T02:00:00Z,25.1760,-80.6330,1.5,16.29,1111122 
ENP,ioos.station.NOAA.NDBC:LMDF1:1,2017-12-08T04:00:00Z,25.1760,-80.6330,1.5,16.28,1111122 
ENP,ioos.station.NOAA.NDBC:LMDF1:1,2017-12-08T05:00:00Z,25.1760,-80.6330,1.5,16.1,1111122 
ENP,ioos.station.NOAA.NDBC:LMDF1:1,2017-12-08T07:00:00Z,25.1760,-80.6330,1.5,16.02,1111122 
ENP,ioos.station.NOAA.NDBC:LMDF1:1,2017-12-08T08:00:00Z,25.1760,-80.6330,1.5,16.67,1111122 
ENP,ioos.station.NOAA.NDBC:LMDF1:1,2017-12-08T09:00:00Z,25.1760,-80.6330,1.5,16.71,1111122 
ENP,ioos.station.NOAA.NDBC:LMDF1:1,2017-12-08T10:00:00Z,25.1760,-80.6330,1.5,16.59,1111122 
ENP,ioos.station.NOAA.NDBC:LMDF1:1,2017-12-08T12:00:00Z,25.1760,-80.6330,1.5,16.5,1111122 
ENP,ioos.station.NOAA.NDBC:LMDF1:1,2017-12-08T13:00:00Z,25.1760,-80.6330,1.5,16.23,1111122 
ENP,ioos.station.NOAA.NDBC:LMDF1:1,2017-12-08T14:00:00Z,25.1760,-80.6330,1.5,16.26,1111122 
ENP,ioos.station.NOAA.NDBC:LMDF1:1,2017-12-08T15:00:00Z,25.1760,-80.6330,1.5,15.98,1111122 
ENP,ioos.station.NOAA.NDBC:LMDF1:1,2017-12-08T17:00:00Z,25.1760,-80.6330,1.5,15.84,1111122 
ENP,ioos.station.NOAA.NDBC:LMDF1:1,2017-12-08T18:00:00Z,25.1760,-80.6330,1.5,15.12,1111122 
ENP,ioos.station.NOAA.NDBC:LMDF1:1,2017-12-08T19:00:00Z,25.1760,-80.6330,1.5,15.12,1111122 
ENP,ioos.station.NOAA.NDBC:LMDF1:1,2017-12-08T20:00:00Z,25.1760,-80.6330,1.5,15.25,1111122 
ENP,ioos.station.NOAA.NDBC:LMDF1:1,2017-12-08T21:00:00Z,25.1760,-80.6330,1.5,15.78,1111122 
ENP,ioos.station.NOAA.NDBC:LMDF1:1,2017-12-08T22:00:00Z,25.1760,-80.6330,1.5,15.04,1111122 
ENP,ioos.station.NOAA.NDBC:LMDF1:1,2017-12-08T23:00:00Z,25.1760,-80.6330,1.5,15.44,1111122 
ENP,ioos.station.NOAA.NDBC:LMDF1:1,2017-12-09T00:00:00Z,25.1760,-80.6330,1.5,15.72,1111122 
ENP,ioos.station.NOAA.NDBC:LMDF1:1,2017-12-09T01:00:00Z,25.1760,-80.6330,1.5,15.94,1111122 
ENP,ioos.station.NOAA.NDBC:LMDF1:1,2017-12-09T02:00:00Z,25.1760,-80.6330,1.5,15.5,1111122 
ENP,ioos.station.NOAA.NDBC:LMDF1:1,2017-12-09T04:00:00Z,25.1760,-80.6330,1.5,15.26,1111122 
ENP,ioos.station.NOAA.NDBC:LMDF1:1,2017-12-09T05:00:00Z,25.1760,-80.6330,1.5,15.59,1111122 
ENP,ioos.station.NOAA.NDBC:LMDF1:1,2017-12-09T07:00:00Z,25.1760,-80.6330,1.5,15.82,1111122 
ENP,ioos.station.NOAA.NDBC:LMDF1:1,2017-12-09T08:00:00Z,25.1760,-80.6330,1.5,15.7,1111122 
ENP,ioos.station.NOAA.NDBC:LMDF1:1,2017-12-09T09:00:00Z,25.1760,-80.6330,1.5,15.8,1111122 
ENP,ioos.station.NOAA.NDBC:LMDF1:1,2017-12-09T10:00:00Z,25.1760,-80.6330,1.5,15.76,1111122 
ENP,ioos.station.NOAA.NDBC:LMDF1:1,2017-12-09T12:00:00Z,25.1760,-80.6330,1.5,15.56,1111122 
ENP,ioos.station.NOAA.NDBC:LMDF1:1,2017-12-09T13:00:00Z,25.1760,-80.6330,1.5,15.18,1111122 
ENP,ioos.station.NOAA.NDBC:LMDF1:1,2017-12-09T14:00:00Z,25.1760,-80.6330,1.5,15.06,1111122 
ENP,ioos.station.NOAA.NDBC:LMDF1:1,2017-12-09T15:00:00Z,25.1760,-80.6330,1.5,15.4,1111122 
ENP,ioos.station.NOAA.NDBC:LMDF1:1,2017-12-09T16:00:00Z,25.1760,-80.6330,1.5,13.05,1111122 
ENP,ioos.station.NOAA.NDBC:LMDF1:1,2017-12-09T17:00:00Z,25.1760,-80.6330,1.5,12.73,1111122 
ENP,ioos.station.NOAA.NDBC:LMDF1:1,2017-12-09T18:00:00Z,25.1760,-80.6330,1.5,13.41,1111122 
ENP,ioos.station.NOAA.NDBC:LMDF1:1,2017-12-09T19:00:00Z,25.1760,-80.6330,1.5,14.86,1111122 
ENP,ioos.station.NOAA.NDBC:LMDF1:1,2017-12-09T20:00:00Z,25.1760,-80.6330,1.5,15.0,1111122 
ENP,ioos.station.NOAA.NDBC:LMDF1:1,2017-12-09T21:00:00Z,25.1760,-80.6330,1.5,15.09,1111122 
ENP,ioos.station.NOAA.NDBC:LMDF1:1,2017-12-09T22:00:00Z,25.1760,-80.6330,1.5,15.25,1111122 
ENP,ioos.station.NOAA.NDBC:LMDF1:1,2017-12-09T23:00:00Z,25.1760,-80.6330,1.5,14.24,1111122 
ENP,ioos.station.NOAA.NDBC:LMDF1:1,2017-12-10T00:00:00Z,25.1760,-80.6330,1.5,13.87,1111122 
ENP,ioos.station.NOAA.NDBC:LMDF1:1,2017-12-10T01:00:00Z,25.1760,-80.6330,1.5,13.86,1111122 
ENP,ioos.station.NOAA.NDBC:LMDF1:1,2017-12-10T02:00:00Z,25.1760,-80.6330,1.5,13.34,1111122 
ENP,ioos.station.NOAA.NDBC:LMDF1:1,2017-12-10T04:00:00Z,25.1760,-80.6330,1.5,12.38,1111122 
ENP,ioos.station.NOAA.NDBC:LMDF1:1,2017-12-10T05:00:00Z,25.1760,-80.6330,1.5,12.39,1111122 
ENP,ioos.station.NOAA.NDBC:LMDF1:1,2017-12-10T07:00:00Z,25.1760,-80.6330,1.5,12.61,1111122 
ENP,ioos.station.NOAA.NDBC:LMDF1:1,2017-12-10T08:00:00Z,25.1760,-80.6330,1.5,12.58,1111122 
ENP,ioos.station.NOAA.NDBC:LMDF1:1,2017-12-10T09:00:00Z,25.1760,-80.6330,1.5,12.66,1111122 
ENP,ioos.station.NOAA.NDBC:LMDF1:1,2017-12-10T10:00:00Z,25.1760,-80.6330,1.5,12.9,1111122 
ENP,ioos.station.NOAA.NDBC:LMDF1:1,2017-12-10T12:00:00Z,25.1760,-80.6330,1.5,13.0,1111122 
ENP,ioos.station.NOAA.NDBC:LMDF1:1,2017-12-10T14:00:00Z,25.1760,-80.6330,1.5,13.16,1111122 
ENP,ioos.station.NOAA.NDBC:LMDF1:1,2017-12-10T15:00:00Z,25.1760,-80.6330,1.5,12.63,1111122 
ENP,ioos.station.NOAA.NDBC:LMDF1:1,2017-12-10T16:00:00Z,25.1760,-80.6330,1.5,12.52,1111122 
ENP,ioos.station.NOAA.NDBC:LMDF1:1,2017-12-10T17:00:00Z,25.1760,-80.6330,1.5,13.24,1111122 
ENP,ioos.station.NOAA.NDBC:LMDF1:1,2017-12-10T18:00:00Z,25.1760,-80.6330,1.5,13.86,1111122 
ENP,ioos.station.NOAA.NDBC:LMDF1:1,2017-12-10T19:00:00Z,25.1760,-80.6330,1.5,13.73,1111122 
ENP,ioos.station.NOAA.NDBC:LMDF1:1,2017-12-10T20:00:00Z,25.1760,-80.6330,1.5,13.0,1111122 
ENP,ioos.station.NOAA.NDBC:LMDF1:1,2017-12-10T21:00:00Z,25.1760,-80.6330,1.5,12.21,1111122 
ENP,ioos.station.NOAA.NDBC:LMDF1:1,2017-12-10T22:00:00Z,25.1760,-80.6330,1.5,13.2,1111122 
ENP,ioos.station.NOAA.NDBC:LMDF1:1,2017-12-10T23:00:00Z,25.1760,-80.6330,1.5,13.95,1111122 
ENP,ioos.station.NOAA.NDBC:LMDF1:1,2017-12-11T00:00:00Z,25.1760,-80.6330,1.5,14.46,1111122 
ENP,ioos.station.NOAA.NDBC:LMDF1:1,2017-12-11T01:00:00Z,25.1760,-80.6330,1.5,13.97,1111122 
ENP,ioos.station.NOAA.NDBC:LMDF1:1,2017-12-11T02:00:00Z,25.1760,-80.6330,1.5,11.67,1111122 
ENP,ioos.station.NOAA.NDBC:LMDF1:1,2017-12-11T04:00:00Z,25.1760,-80.6330,1.5,14.86,1111122 
ENP,ioos.station.NOAA.NDBC:LMDF1:1,2017-12-11T05:00:00Z,25.1760,-80.6330,1.5,15.09,1111122 
ENP,ioos.station.NOAA.NDBC:LMDF1:1,2017-12-11T07:00:00Z,25.1760,-80.6330,1.5,14.43,1111122 
ENP,ioos.station.NOAA.NDBC:LMDF1:1,2017-12-11T08:00:00Z,25.1760,-80.6330,1.5,14.56,1111122 
ENP,ioos.station.NOAA.NDBC:LMDF1:1,2017-12-11T09:00:00Z,25.1760,-80.6330,1.5,14.46,1111122 
ENP,ioos.station.NOAA.NDBC:LMDF1:1,2017-12-11T10:00:00Z,25.1760,-80.6330,1.5,14.58,1111122 
ENP,ioos.station.NOAA.NDBC:LMDF1:1,2017-12-11T12:00:00Z,25.1760,-80.6330,1.5,14.65,1111122 
ENP,ioos.station.NOAA.NDBC:LMDF1:1,2017-12-11T13:00:00Z,25.1760,-80.6330,1.5,14.74,1111122 
ENP,ioos.station.NOAA.NDBC:LMDF1:1,2017-12-11T14:00:00Z,25.1760,-80.6330,1.5,15.21,1111122 
ENP,ioos.station.NOAA.NDBC:LMDF1:1,2017-12-11T15:00:00Z,25.1760,-80.6330,1.5,15.89,1111122 
ENP,ioos.station.NOAA.NDBC:LMDF1:1,2017-12-11T16:00:00Z,25.1760,-80.6330,1.5,15.26,1111122 
ENP,ioos.station.NOAA.NDBC:LMDF1:1,2017-12-11T17:00:00Z,25.1760,-80.6330,1.5,15.42,1111122 
ENP,ioos.station.NOAA.NDBC:LMDF1:1,2017-12-11T18:00:00Z,25.1760,-80.6330,1.5,16.06,1111122 
ENP,ioos.station.NOAA.NDBC:LMDF1:1,2017-12-11T19:00:00Z,25.1760,-80.6330,1.5,13.69,1111122 
ENP,ioos.station.NOAA.NDBC:LMDF1:1,2017-12-11T20:00:00Z,25.1760,-80.6330,1.5,16.21,1111122 
ENP,ioos.station.NOAA.NDBC:LMDF1:1,2017-12-11T21:00:00Z,25.1760,-80.6330,1.5,17.61,1111122 
ENP,ioos.station.NOAA.NDBC:LMDF1:1,2017-12-11T22:00:00Z,25.1760,-80.6330,1.5,17.81,1111122 
ENP,ioos.station.NOAA.NDBC:LMDF1:1,2017-12-11T23:00:00Z,25.1760,-80.6330,1.5,17.94,1111122 
ENP,ioos.station.NOAA.NDBC:LMDF1:1,2017-12-12T00:00:00Z,25.1760,-80.6330,1.5,18.04,1111122 
ENP,ioos.station.NOAA.NDBC:LMDF1:1,2017-12-12T01:00:00Z,25.1760,-80.6330,1.5,18.11,1111122 
ENP,ioos.station.NOAA.NDBC:LMDF1:1,2017-12-12T02:00:00Z,25.1760,-80.6330,1.5,18.13,1111122 
ENP,ioos.station.NOAA.NDBC:LMDF1:1,2017-12-12T05:00:00Z,25.1760,-80.6330,1.5,17.01,1111122 
ENP,ioos.station.NOAA.NDBC:LMDF1:1,2017-12-12T07:00:00Z,25.1760,-80.6330,1.5,18.06,1111122 
ENP,ioos.station.NOAA.NDBC:LMDF1:1,2017-12-12T08:00:00Z,25.1760,-80.6330,1.5,18.19,1111122 
ENP,ioos.station.NOAA.NDBC:LMDF1:1,2017-12-12T09:00:00Z,25.1760,-80.6330,1.5,18.28,1111122 
ENP,ioos.station.NOAA.NDBC:LMDF1:1,2017-12-12T10:00:00Z,25.1760,-80.6330,1.5,18.34,1111122 
ENP,ioos.station.NOAA.NDBC:LMDF1:1,2017-12-12T13:00:00Z,25.1760,-80.6330,1.5,18.34,1111122 
ENP,ioos.station.NOAA.NDBC:LMDF1:1,2017-12-12T14:00:00Z,25.1760,-80.6330,1.5,18.29,1111122 
ENP,ioos.station.NOAA.NDBC:LMDF1:1,2017-12-12T15:00:00Z,25.1760,-80.6330,1.5,18.29,1111122 
ENP,ioos.station.NOAA.NDBC:LMDF1:1,2017-12-12T16:00:00Z,25.1760,-80.6330,1.5,18.26,1111122 
ENP,ioos.station.NOAA.NDBC:LMDF1:1,2017-12-12T17:00:00Z,25.1760,-80.6330,1.5,18.19,1111122 
ENP,ioos.station.NOAA.NDBC:LMDF1:1,2017-12-12T18:00:00Z,25.1760,-80.6330,1.5,18.13,1111122 
ENP,ioos.station.NOAA.NDBC:LMDF1:1,2017-12-12T19:00:00Z,25.1760,-80.6330,1.5,18.2,1111122 
ENP,ioos.station.NOAA.NDBC:LMDF1:1,2017-12-12T20:00:00Z,25.1760,-80.6330,1.5,18.07,1111122 
ENP,ioos.station.NOAA.NDBC:LMDF1:1,2017-12-12T21:00:00Z,25.1760,-80.6330,1.5,18.06,1111122 
ENP,ioos.station.NOAA.NDBC:LMDF1:1,2017-12-12T22:00:00Z,25.1760,-80.6330,1.5,18.24,1111122 
ENP,ioos.station.NOAA.NDBC:LMDF1:1,2017-12-13T09:00:00Z,25.1760,-80.6330,1.5,15.1,1111122 
ENP,ioos.station.NOAA.NDBC:LMDF1:1,2017-12-13T10:00:00Z,25.1760,-80.6330,1.5,16.68,1111122 
ENP,ioos.station.NOAA.NDBC:LMDF1:1,2017-12-13T12:00:00Z,25.1760,-80.6330,1.5,13.25,1111122 
ENP,ioos.station.NOAA.NDBC:LMDF1:1,2017-12-13T13:00:00Z,25.1760,-80.6330,1.5,15.88,1111122 
ENP,ioos.station.NOAA.NDBC:LMDF1:1,2017-12-13T14:00:00Z,25.1760,-80.6330,1.5,16.75,1111122 
ENP,ioos.station.NOAA.NDBC:LMDF1:1,2017-12-13T17:00:00Z,25.1760,-80.6330,1.5,17.24,1111122 
ENP,ioos.station.NOAA.NDBC:LMDF1:1,2017-12-13T18:00:00Z,25.1760,-80.6330,1.5,17.56,1111122 
ENP,ioos.station.NOAA.NDBC:LMDF1:1,2017-12-13T19:00:00Z,25.1760,-80.6330,1.5,15.92,1111122 
ENP,ioos.station.NOAA.NDBC:LMDF1:1,2017-12-13T20:00:00Z,25.1760,-80.6330,1.5,16.54,1111122 
ENP,ioos.station.NOAA.NDBC:LMDF1:1,2017-12-13T21:00:00Z,25.1760,-80.6330,1.5,17.31,1111122 
ENP,ioos.station.NOAA.NDBC:LMDF1:1,2017-12-13T22:00:00Z,25.1760,-80.6330,1.5,17.59,1111122 
ENP,ioos.station.NOAA.NDBC:LMDF1:1,2017-12-14T10:00:00Z,25.1760,-80.6330,1.5,17.89,1111122 
ENP,ioos.station.NOAA.NDBC:LMDF1:1,2017-12-14T12:00:00Z,25.1760,-80.6330,1.5,17.9,1111122 
ENP,ioos.station.NOAA.NDBC:LMDF1:1,2017-12-14T13:00:00Z,25.1760,-80.6330,1.5,17.85,1111122 
ENP,ioos.station.NOAA.NDBC:LMDF1:1,2017-12-14T14:00:00Z,25.1760,-80.6330,1.5,17.9,1111122 
ENP,ioos.station.NOAA.NDBC:LMDF1:1,2017-12-14T15:00:00Z,25.1760,-80.6330,1.5,17.93,1111122 
ENP,ioos.station.NOAA.NDBC:LMDF1:1,2017-12-14T16:00:00Z,25.1760,-80.6330,1.5,17.96,1111122 
ENP,ioos.station.NOAA.NDBC:LMDF1:1,2017-12-14T17:00:00Z,25.1760,-80.6330,1.5,17.84,1111122 
ENP,ioos.station.NOAA.NDBC:LMDF1:1,2017-12-14T18:00:00Z,25.1760,-80.6330,1.5,17.86,1111122 
ENP,ioos.station.NOAA.NDBC:LMDF1:1,2017-12-14T19:00:00Z,25.1760,-80.6330,1.5,17.9,1111122 
ENP,ioos.station.NOAA.NDBC:LMDF1:1,2017-12-14T20:00:00Z,25.1760,-80.6330,1.5,17.89,1111122 
ENP,ioos.station.NOAA.NDBC:LMDF1:1,2017-12-14T23:00:00Z,25.1760,-80.6330,1.5,17.38,1111122 
ENP,ioos.station.NOAA.NDBC:LMDF1:1,2017-12-15T00:00:00Z,25.1760,-80.6330,1.5,17.42,1111122 
ENP,ioos.station.NOAA.NDBC:LMDF1:1,2017-12-15T01:00:00Z,25.1760,-80.6330,1.5,17.48,1111122 
ENP,ioos.station.NOAA.NDBC:LMDF1:1,2017-12-15T02:00:00Z,25.1760,-80.6330,1.5,17.54,1111122 
ENP,ioos.station.NOAA.NDBC:LMDF1:1,2017-12-15T05:00:00Z,25.1760,-80.6330,1.5,17.48,1111122 
ENP,ioos.station.NOAA.NDBC:LMDF1:1,2017-12-15T08:00:00Z,25.1760,-80.6330,1.5,17.73,1111122 
ENP,ioos.station.NOAA.NDBC:LMDF1:1,2017-12-15T09:00:00Z,25.1760,-80.6330,1.5,17.85,1111122 
ENP,ioos.station.NOAA.NDBC:LMDF1:1,2017-12-15T10:00:00Z,25.1760,-80.6330,1.5,17.9,1111122 
ENP,ioos.station.NOAA.NDBC:LMDF1:1,2017-12-15T12:00:00Z,25.1760,-80.6330,1.5,18.02,1111122 
ENP,ioos.station.NOAA.NDBC:LMDF1:1,2017-12-15T13:00:00Z,25.1760,-80.6330,1.5,18.06,1111122 
ENP,ioos.station.NOAA.NDBC:LMDF1:1,2017-12-15T14:00:00Z,25.1760,-80.6330,1.5,18.53,1111122 
ENP,ioos.station.NOAA.NDBC:LMDF1:1,2017-12-15T15:00:00Z,25.1760,-80.6330,1.5,18.49,1111122 
ENP,ioos.station.NOAA.NDBC:LMDF1:1,2017-12-15T16:00:00Z,25.1760,-80.6330,1.5,18.57,1111122 
ENP,ioos.station.NOAA.NDBC:LMDF1:1,2017-12-15T17:00:00Z,25.1760,-80.6330,1.5,18.57,1111122 
ENP,ioos.station.NOAA.NDBC:LMDF1:1,2017-12-15T18:00:00Z,25.1760,-80.6330,1.5,17.38,1111122 
ENP,ioos.station.NOAA.NDBC:LMDF1:1,2017-12-15T19:00:00Z,25.1760,-80.6330,1.5,17.8,1111122 
ENP,ioos.station.NOAA.NDBC:LMDF1:1,2017-12-15T20:00:00Z,25.1760,-80.6330,1.5,17.88,1111122 